"Pseudo-MPEC" for C10QEZ5

Created 2025 Feb 7 4:31:04 UT using Find_Orb

Click here for an explanation of pseudo-MPECs

 
 Astrometry: 
     C10QEZ5* C2025 01 20.31632006 24 29.516+37 58 10.24   ~1K8H 22.43GVNEOCPV00
     C10QEZ5  C2025 01 20.32193906 24 29.707+37 57 57.31   ~1K8H 22.32GVNEOCPV00
     C10QEZ5  C2025 01 20.32761506 24 29.934+37 57 43.92   ~1K8H       VNEOCPV00
     C10QEZ5  C2025 01 20.43260006 24 34.500+37 53 34.00   ~1KBl       VNEOCP291
     C10QEZ5  C2025 01 20.45657006 24 35.870+37 52 34.40   ~1KBl       VNEOCP291
     C10QEZ5  C2025 01 22.37767006 26 49.960+36 36 28.40   ~1MAV       VNEOCP291
     C10QEZ5  C2025 01 22.39355006 26 51.030+36 35 43.40   ~1MAVx      VNEOCP291
     C10QEZ5  C2025 01 22.40954006 26 51.770+36 35 00.20   ~1MAV       VNEOCP291

Station data:
(291) LPL/Spacewatch II  (N31.961669 W111.599905)  US/Arizona.  Observers J.
   V. Scotti, R. S. McMillan. 1.8-m f/2.7 reflector + CCD.
(V00) Kitt Peak-Bok  (N31.963125 W111.600190)  US/Arizona.  Observers T. A.
   Pruyne, B. M. Africano, E. J. Christensen, G. A. Farneth, D. C. Fuls, A.
   R. Gibbs, A. D. Grauer, H. Gröller, J. A. Johnson, R. A. Kowalski, S. M.
   Larson, G. J. Leonard, D. Rankin, R. L. Seaman, F. C. Shelly, K. W.
   Wierzchoś. 2.25-m reflector + 4x4K mosaic CCD.

Orbital elements:  C10QEZ5
   Perihelion 2025 Feb 19.83934 +/- 0.428 TT = 20:08:38 (JD 2460726.33934)
Epoch 2025 Jan 22.0 TT = JDT 2460697.5   Earth MOID: 0.0724      AutoNEOCP
M 349.12830839 +/- 0.38             (J2000 ecliptic)
n   0.37697441 +/- 0.0173           Peri.  196.64866 +/- 0.9
a   1.89784818 +/- 0.058            Node   312.75786 +/- 0.20
e   0.4444013 +/- 0.0178            Incl.    6.70732 +/- 0.15
P   2.615/954.954d         H 25.56  G  0.15   U 10.0
q 1.05444183 +/- 0.00434    Q 2.74125453 +/- 0.117
7 of 8 observations 2025 Jan. 20-22; mean residual 0".49
Residuals in arcseconds: 
250120 V00  .10-  .00     250120 291  .29-  .55+    250122 291( 2.3+  1.2-)   
250120 V00  .25-  .09+    250120 291  .65+  .56-    250122 291  .45-  .93-    
250120 V00  .03-  .10-    250122 291  .43+  .95+    

Ephemerides (geocentric):
Date (UTC) HH   RA             Dec           delta  r     elong  mag " sig PA
---- --------  ------------   ------------  ------ ------ -----  --- --------
2025 02 07 05  07 04 35.020   +18 38 21.72  .09124 1.0638 146.8 21.8  619 155
2025 02 07 06  07 04 44.083   +18 34 15.22  .09116 1.0637 146.8 21.8  623 155
2025 02 07 07  07 04 53.163   +18 30 08.28  .09109 1.0637 146.8 21.8  627 155
2025 02 07 08  07 05 02.259   +18 26 00.92  .09102 1.0636 146.8 21.8  632 155
2025 02 07 09  07 05 11.373   +18 21 53.14  .09095 1.0636 146.8 21.8  636 155
2025 02 07 10  07 05 20.503   +18 17 44.93  .09087 1.0635 146.8 21.8  640 155
2025 02 07 11  07 05 29.650   +18 13 36.29  .09080 1.0634 146.8 21.8  644 155
2025 02 07 12  07 05 38.814   +18 09 27.23  .09073 1.0634 146.7 21.8  649 155
2025 02 07 13  07 05 47.995   +18 05 17.75  .09066 1.0633 146.7 21.8  653 155
2025 02 07 14  07 05 57.193   +18 01 07.84  .09058 1.0633 146.7 21.8  657 155
2025 02 07 15  07 06 06.407   +17 56 57.51  .09051 1.0632 146.7 21.8  662 155
2025 02 07 16  07 06 15.639   +17 52 46.76  .09044 1.0631 146.7 21.8  666 155
2025 02 07 17  07 06 24.887   +17 48 35.59  .09037 1.0631 146.7 21.8  670 155
2025 02 07 18  07 06 34.152   +17 44 23.99  .09030 1.0630 146.7 21.8  675 155
2025 02 07 19  07 06 43.434   +17 40 11.98  .09023 1.0630 146.7 21.8  679 155
2025 02 07 20  07 06 52.732   +17 35 59.54  .09016 1.0629 146.7 21.8  683 155
2025 02 07 21  07 07 02.048   +17 31 46.68  .09009 1.0628 146.7 21.8  688 155
2025 02 07 22  07 07 11.380   +17 27 33.40  .09002 1.0628 146.7 21.8  692 155
2025 02 07 23  07 07 20.729   +17 23 19.70  .08995 1.0627 146.7 21.8  697 155
2025 02 08 00  07 07 30.094   +17 19 05.58  .08988 1.0627 146.7 21.8  701 155
2025 02 08 01  07 07 39.477   +17 14 51.05  .08981 1.0626 146.7 21.8  706 155
2025 02 08 02  07 07 48.876   +17 10 36.09  .08974 1.0626 146.7 21.8  710 155
2025 02 08 03  07 07 58.292   +17 06 20.72  .08967 1.0625 146.7 21.8  715 155
2025 02 08 04  07 08 07.724   +17 02 04.93  .08960 1.0624 146.7 21.8  720 155
2025 02 08 05  07 08 17.173   +16 57 48.73  .08954 1.0624 146.6 21.8  724 155
2025 02 08 06  07 08 26.639   +16 53 32.11  .08947 1.0623 146.6 21.8  729 155
2025 02 08 07  07 08 36.122   +16 49 15.07  .08940 1.0623 146.6 21.8  733 155
2025 02 08 08  07 08 45.621   +16 44 57.62  .08933 1.0622 146.6 21.8  738 155
2025 02 08 09  07 08 55.137   +16 40 39.76  .08926 1.0622 146.6 21.8  743 155
2025 02 08 10  07 09 04.670   +16 36 21.48  .08920 1.0621 146.6 21.8  747 155
2025 02 08 11  07 09 14.219   +16 32 02.78  .08913 1.0620 146.6 21.8  752 155
2025 02 08 12  07 09 23.785   +16 27 43.68  .08906 1.0620 146.6 21.8  757 155
2025 02 08 13  07 09 33.368   +16 23 24.16  .08900 1.0619 146.6 21.8  761 155
2025 02 08 14  07 09 42.967   +16 19 04.24  .08893 1.0619 146.6 21.8  766 155
2025 02 08 15  07 09 52.583   +16 14 43.90  .08886 1.0618 146.6 21.8  771 155
2025 02 08 16  07 10 02.215   +16 10 23.15  .08880 1.0618 146.6 21.8  776 155
2025 02 08 17  07 10 11.864   +16 06 01.99  .08873 1.0617 146.6 21.8  781 155
2025 02 08 18  07 10 21.529   +16 01 40.43  .08867 1.0617 146.6 21.8  785 155
2025 02 08 19  07 10 31.212   +15 57 18.45  .08860 1.0616 146.6 21.8  790 155
2025 02 08 20  07 10 40.910   +15 52 56.07  .08854 1.0616 146.6 21.8  795 155
2025 02 08 21  07 10 50.625   +15 48 33.28  .08847 1.0615 146.5 21.8  800 155
2025 02 08 22  07 11 00.357   +15 44 10.09  .08841 1.0614 146.5 21.8  805 155
2025 02 08 23  07 11 10.105   +15 39 46.49  .08834 1.0614 146.5 21.7  810 155
2025 02 09 00  07 11 19.870   +15 35 22.49  .08828 1.0613 146.5 21.7  815 155
2025 02 09 01  07 11 29.651   +15 30 58.08  .08821 1.0613 146.5 21.7  820 155
2025 02 09 02  07 11 39.449   +15 26 33.27  .08815 1.0612 146.5 21.7  825 155
2025 02 09 03  07 11 49.263   +15 22 08.06  .08809 1.0612 146.5 21.7  830 155
2025 02 09 04  07 11 59.094   +15 17 42.45  .08802 1.0611 146.5 21.7  835 155